Dewpoint
70 67 67 66 67 67 66 64 58 59 59 56 54 55 57 60 62 60 62 62 61 62 63 59 58 58 60 57 59 60 61 62 59 53 55 66 70 69 70 70 70 71 71 72 73 74 74 75 75 75 75 75 76 76 76 76 76 76 76 76 75 75 75 75 75 76 75 75 75 75 75 75 74 74 75 74 73 74 74 74 75 74 74 74 74 74 74 74 74 74 74 74 75 74 75 75 75
67 66 66 67 66 67 60 61 58 57 57 53 53 56 59 61 60 60 60 61 62 62 59 58 58 62 62 61 57 56 58 59 60 61 65 67 69 69 70 70 69 70 71 71 71 73 74 74 74 75 75 75 76 76 76 76 76 76 76 76 75 75 75 75 75 76 75 75 75 74 75 75 74 75 74 75 73 74 73 73 74 74 75 74 74 73 74 73 74 74 74 74 74 74 74 75 75
65 65 66 67 66 69 66 64 58 55 53 50 51 59 60 59 58 60 62 63 62 59 59 61 61 62 58 61 60 61 56 60 61 63 65 68 68 70 70 70 70 71 70 71 71 72 73 74 75 75 75 76 76 76 76 76 76 76 76 75 75 75 75 75 76 76 75 75 75 75 75 75 75 74 75 75 74 74 73 73 74 75 75 75 74 74 74 75 74 74 74 74 74 74 75 75 75
66 66 66 67 65 67 63 62 58 56 51 57 54 59 59 59 59 63 64 64 60 59 61 61 62 66 62 59 58 58 59 61 62 63 65 66 68 69 69 70 72 70 70 71 69 71 74 74 75 76 76 76 76 76 76 76 76 76 76 75 75 75 75 75 76 75 75 75 75 75 75 75 75 75 75 74 74 73 74 73 73 74 75 74 74 74 74 74 74 74 74 74 74 74 74 74 75
66 68 69 68 68 61 61 59 56 57 53 57 56 59 61 60 61 64 64 63 60 60 62 63 61 66 65 64 63 60 60 62 63 64 65 67 68 69 70 70 70 69 70 70 71 71 73 74 75 76 76 76 76 76 76 76 76 76 75 75 75 75 75 76 76 76 75 75 75 75 75 75 75 75 75 74 74 73 72 73 74 74 74 75 75 74 74 74 74 74 74 74 74 74 74 73 74
67 68 69 69 63 67 62 57 57 53 57 57 57 59 61 61 63 64 64 63 63 61 64 62 60 60 61 61 61 59 61 61 62 64 66 67 68 68 70 71 69 69 69 71 72 73 73 75 76 76 76 76 76 76 76 76 76 75 76 75 75 75 76 76 75 75 75 75 74 74 75 75 75 75 75 74 74 73 73 73 74 74 74 74 74 74 74 74 75 74 74 75 74 74 74 73 74
66 67 66 67 66 65 58 55 54 54 59 60 59 61 63 62 64 63 64 63 62 63 62 63 60 59 59 61 62 65 64 62 62 64 66 67 68 69 69 69 69 69 70 72 72 72 75 76 76 76 76 76 76 76 76 75 76 76 76 75 75 76 76 75 75 75 75 75 75 75 75 75 75 75 75 75 74 74 73 73 74 74 74 74 74 74 74 74 74 74 75 74 75 74 74 73 74
69 68 66 61 61 62 58 55 54 56 59 63 62 62 63 64 64 64 64 61 60 62 64 61 61 62 62 63 62 64 63 63 64 66 67 68 68 68 68 68 69 69 69 71 73 75 77 76 76 76 76 75 76 76 76 76 76 76 76 76 76 75 75 75 75 75 75 75 75 75 75 75 75 75 75 75 74 74 74 73 73 73 74 74 74 74 74 74 74 74 74 74 74 74 74 74 74
68 68 67 64 58 59 56 54 59 60 60 62 63 65 66 65 65 65 63 64 62 63 61 59 59 59 61 62 63 65 64 65 65 68 67 67 68 68 68 68 67 68 69 70 73 74 76 76 76 76 75 74 76 76 76 76 76 76 76 76 76 75 75 75 75 75 75 75 75 75 75 75 75 75 75 74 74 74 74 73 74 74 74 75 74 74 74 74 75 74 75 74 74 74 74 74 74
66 68 65 60 59 55 55 55 54 58 60 63 63 64 65 66 64 64 63 63 64 63 63 61 59 62 62 61 62 64 64 66 66 66 68 67 67 67 67 67 67 68 68 68 72 73 75 77 76 75 76 76 76 76 76 75 76 75 76 76 76 75 75 75 75 74 75 75 75 75 74 75 74 75 75 75 74 74 74 74 75 75 75 74 74 74 74 74 74 74 74 74 75 74 74 74 74
67 65 65 60 57 53 53 57 58 58 62 64 64 65 66 65 65 63 64 64 65 64 61 60 60 60 60 62 64 65 66 66 65 66 67 67 68 67 66 67 67 67 67 69 72 73 74 76 76 75 76 76 76 76 75 76 76 76 76 76 76 75 75 75 75 75 75 75 75 75 75 75 74 74 74 75 74 74 74 75 74 75 75 75 74 74 74 74 74 73 74 74 74 74 74 74 74
63 61 62 58 54 55 54 58 60 61 62 64 64 66 67 65 65 63 63 63 64 63 61 60 60 61 60 61 63 65 66 65 65 66 67 67 66 66 67 68 68 67 68 70 71 74 76 76 76 76 76 76 76 76 75 75 75 75 76 76 75 75 75 75 74 74 74 75 75 75 75 75 74 74 74 75 75 74 74 75 75 75 75 75 74 74 74 74 74 74 74 74 74 74 74 74 74
64 62 59 56 54 55 55 56 58 61 63 63 63 66 67 64 63 63 63 64 63 62 59 63 61 60 60 61 64 65 64 65 66 67 67 67 66 67 67 67 68 68 69 70 73 72 72 74 76 73 74 76 75 75 75 75 75 75 76 75 76 74 75 74 74 74 74 74 74 74 74 74 74 75 75 75 75 75 74 75 75 75 75 74 75 74 74 74 74 74 75 74 74 74 74 74 73
63 63 62 56 57 55 54 55 59 57 62 65 65 66 67 64 63 64 63 63 63 63 62 63 61 62 63 61 64 63 63 66 66 67 67 67 66 66 67 68 68 69 69 70 72 73 73 73 73 72 74 75 76 76 75 75 74 74 76 75 75 75 74 73 73 73 74 75 75 75 75 75 75 75 75 75 75 75 75 76 76 75 74 74 74 74 74 75 74 74 74 74 74 74 74 74 73
62 65 62 56 54 54 56 57 57 58 60 63 66 66 66 66 66 65 64 63 64 65 64 62 62 60 59 59 60 60 63 65 67 67 67 67 67 66 67 67 68 69 69 69 71 72 73 75 71 72 75 76 76 76 76 76 75 74 75 76 75 75 74 73 74 74 74 74 74 74 75 75 75 74 75 75 75 75 75 75 76 75 74 75 74 74 74 74 74 74 74 74 74 74 74 73 73
65 63 60 56 54 54 55 55 56 55 58 62 65 67 66 66 67 66 66 66 65 65 63 61 62 62 60 59 59 60 64 66 67 67 67 68 68 67 67 67 67 68 70 70 71 72 72 71 71 72 76 75 74 75 76 77 75 74 75 75 75 75 74 74 74 74 73 73 74 74 74 75 74 74 75 75 75 75 74 74 76 75 75 74 74 74 74 75 74 74 74 73 73 74 74 73 72
64 64 60 53 56 54 54 54 55 58 59 63 66 66 64 65 67 68 69 68 65 64 65 63 63 61 60 60 59 62 64 66 67 67 67 68 67 66 66 66 67 67 68 70 72 71 70 71 70 73 75 75 73 73 74 77 76 76 75 75 75 75 75 75 75 74 73 74 74 74 74 75 74 76 75 74 75 75 75 74 76 75 75 75 74 74 74 74 74 74 74 74 74 74 74 74 74
64 59 55 54 54 55 56 56 59 59 60 63 66 66 65 65 67 67 68 66 66 66 64 65 62 61 61 61 61 62 63 65 66 65 65 66 66 65 65 65 65 66 67 69 71 70 70 70 72 75 75 76 75 74 74 75 75 75 75 77 77 76 76 75 77 77 74 74 74 74 75 74 75 75 76 75 75 75 74 75 75 75 75 75 75 75 74 74 74 74 75 74 74 74 74 73 73
61 58 57 52 54 55 58 58 59 58 59 65 65 67 65 65 67 67 65 65 65 63 64 62 61 62 62 61 62 62 63 64 65 64 64 65 65 65 64 65 65 65 66 67 70 69 70 69 73 74 75 76 75 75 73 75 75 76 76 76 75 76 77 77 77 77 77 75 75 75 75 74 74 75 75 75 75 75 75 75 75 76 76 75 74 74 75 75 75 75 75 75 75 75 75 74 73
59 59 53 52 55 55 57 58 61 59 63 63 65 65 65 66 67 66 65 62 63 63 60 60 61 61 61 61 61 62 63 63 64 64 63 64 64 63 63 63 64 65 65 65 68 68 68 69 74 75 76 76 75 74 73 75 74 74 74 74 74 75 76 76 76 77 77 77 76 75 75 75 76 77 75 75 75 74 74 75 75 76 76 75 75 74 75 75 75 75 76 76 75 74 72 68 66
58 58 54 55 56 54 53 56 58 60 64 64 65 66 65 66 67 65 64 62 63 63 60 59 60 61 60 60 61 61 62 62 61 63 62 62 63 61 62 63 64 64 65 65 68 67 69 71 74 75 76 75 75 74 73 73 74 74 73 73 74 74 75 75 76 76 77 76 76 74 74 75 74 75 76 76 75 75 75 75 75 72 74 75 74 75 75 73 73 74 74 75 71 69 68 68 68
56 56 54 54 55 52 51 51 56 57 64 65 65 64 64 67 67 64 64 60 62 66 60 59 59 60 60 60 60 61 60 61 61 62 60 60 61 61 61 62 62 64 66 66 67 67 69 71 72 74 74 75 75 73 73 75 75 74 73 73 74 75 75 76 75 75 74 75 75 72 74 75 75 74 75 75 74 74 73 74 74 73 72 74 75 74 73 73 73 72 73 72 70 70 69 70 68
53 52 52 52 51 50 52 49 55 56 63 64 65 64 66 65 66 64 61 65 66 64 61 61 60 60 60 60 59 59 60 59 59 60 59 58 60 61 61 61 62 63 66 66 66 67 69 70 72 72 73 75 75 74 75 74 74 74 74 74 74 73 74 75 74 73 74 75 75 74 70 71 72 72 74 75 74 73 72 72 71 72 72 71 72 71 73 73 72 71 72 73 72 69 70 71 71
55 53 51 50 50 49 48 45 50 51 59 64 65 63 65 65 63 64 63 66 67 67 63 62 61 61 61 60 60 59 60 60 59 60 60 59 61 60 61 61 62 64 65 66 65 67 70 69 72 72 74 74 75 74 75 73 75 73 73 73 74 73 73 74 73 72 73 73 75 74 73 72 71 73 74 74 73 73 72 72 72 69 68 69 71 71 71 71 71 72 73 73 72 71 69 70 69
53 51 50 49 48 51 45 42 45 51 57 64 63 62 63 63 64 64 63 64 65 65 63 63 62 61 61 61 61 61 61 60 59 60 60 61 61 61 62 62 62 63 64 65 65 66 68 69 70 71 73 74 72 72 73 73 73 72 71 71 73 74 74 74 73 74 72 72 74 75 74 71 71 72 73 73 73 73 72 71 69 69 71 71 72 70 72 72 71 70 71 71 72 72 70 70 70
52 52 51 48 44 41 45 46 46 53 59 63 62 60 62 62 65 62 64 63 66 65 65 63 62 61 60 60 61 61 61 61 61 61 61 62 62 62 62 62 62 63 64 65 65 67 67 68 68 70 71 73 71 68 73 73 72 71 72 74 74 75 73 74 73 71 70 71 71 74 73 72 71 71 72 72 72 71 72 72 72 72 72 72 71 72 72 71 70 70 71 71 71 71 71 72 70
49 48 45 42 39 47 50 46 51 54 60 61 60 60 63 63 60 60 62 63 63 64 63 63 62 61 61 61 61 61 61 61 61 62 61 62 63 62 63 62 63 63 65 64 64 67 69 68 67 71 71 73 71 68 72 74 73 72 72 72 74 74 73 73 72 71 70 71 73 75 75 75 72 71 72 72 71 70 72 73 72 73 72 71 72 72 74 74 72 71 72 71 72 72 72 72 70
44 42 41 41 41 54 52 53 55 56 59 61 60 61 61 63 59 61 62 63 63 63 63 65 63 62 62 62 62 62 62 62 63 62 61 62 63 63 62 63 63 63 64 64 65 69 67 67 67 69 71 72 72 70 73 73 72 72 73 72 72 73 73 72 71 71 71 71 73 75 75 74 74 73 73 73 72 72 73 72 73 74 74 73 74 74 73 74 75 74 76 75 74 73 72 71 72
43 41 40 38 43 53 54 54 56 58 59 60 61 61 60 60 58 62 61 62 62 63 64 65 63 62 62 62 62 64 63 63 63 62 61 63 63 62 62 62 62 64 64 64 66 67 66 67 68 70 70 72 72 70 70 72 71 71 72 71 72 72 72 71 70 70 72 73 74 75 75 75 75 73 73 73 73 72 72 74 73 74 74 74 75 74 74 75 74 73 73 74 73 72 71 72 71
43 42 40 36 35 51 55 57 56 58 58 60 59 56 56 59 57 60 62 62 62 62 63 63 63 62 62 62 62 62 62 63 63 63 62 63 63 62 62 62 63 63 65 65 66 65 66 66 67 67 69 71 72 70 71 70 71 71 71 71 73 72 70 70 70 71 72 72 74 75 74 75 74 73 74 74 73 72 74 75 74 74 75 75 75 75 74 73 72 73 71 72 71 71 70 71 69
41 42 38 36 34 47 54 56 57 57 58 60 59 56 53 61 58 59 62 62 61 62 62 62 62 62 62 62 62 62 62 63 63 63 63 64 63 63 62 62 64 64 66 65 66 66 67 68 67 66 69 70 71 71 71 71 71 70 71 71 71 71 71 70 69 71 71 72 73 73 74 74 75 74 75 75 74 74 73 73 73 73 75 75 73 74 73 73 74 73 71 71 72 70 70 71 71
40 37 37 35 33 46 55 57 56 56 58 59 58 57 57 56 60 59 62 62 60 61 62 62 61 61 62 62 62 61 61 63 64 63 63 63 62 62 63 63 63 64 66 65 66 67 67 68 69 66 69 70 70 71 72 72 71 72 71 71 72 73 70 70 69 70 71 71 72 74 75 75 75 76 78 77 75 74 73 72 73 74 76 75 74 75 75 74 74 74 74 73 71 70 71 70 71
39 39 38 35 32 42 48 53 56 57 56 58 58 56 53 58 60 60 61 61 60 61 61 62 64 61 61 61 61 61 62 62 64 62 62 63 62 62 63 64 64 65 64 65 67 68 68 68 70 66 66 69 70 70 72 72 72 72 72 71 70 72 70 70 70 71 71 71 72 71 75 75 76 77 78 78 76 74 72 73 72 74 75 75 75 75 73 74 74 72 75 74 74 73 70 68 69
34 38 37 31 33 35 40 53 56 56 57 54 57 57 53 54 59 61 60 61 61 62 62 61 64 62 61 61 60 60 62 63 63 62 61 62 62 62 62 66 64 65 65 65 67 67 67 68 68 67 67 67 71 71 72 71 72 73 72 71 72 70 71 69 70 71 71 70 71 72 75 76 77 78 79 78 77 75 74 73 74 75 75 75 74 74 74 74 74 73 74 75 74 75 71 70 68
31 36 36 30 30 33 39 40 53 55 56 55 55 53 54 58 58 60 60 60 60 61 62 61 62 63 62 60 60 60 62 63 62 62 61 62 61 62 62 64 64 64 65 65 68 68 68 69 69 70 69 68 70 72 73 72 72 73 70 72 71 72 73 71 71 70 70 71 70 74 76 77 77 78 79 78 77 74 74 74 75 76 76 74 75 74 74 75 75 74 74 75 75 74 72 71 70
33 35 34 32 30 30 32 45 53 53 52 51 53 52 50 54 58 59 59 59 60 61 62 62 62 62 63 62 60 61 62 62 63 63 62 61 61 62 62 64 63 63 65 66 69 69 70 70 70 71 71 69 71 71 72 70 70 70 69 70 70 71 72 73 73 71 71 70 71 73 75 77 78 78 78 78 77 76 74 74 75 75 75 75 74 73 72 73 75 76 76 76 76 75 73 72 71
33 35 35 31 29 27 30 28 46 53 51 49 49 48 47 50 56 58 59 60 60 60 61 62 62 62 62 62 61 62 63 61 62 62 62 62 62 63 64 65 64 64 67 67 69 69 69 70 71 72 71 71 71 71 71 69 70 70 71 69 69 70 72 73 72 71 70 70 73 73 75 73 77 78 78 78 77 76 76 75 76 76 75 75 75 74 74 75 76 75 75 76 74 74 72 71 69
33 33 32 30 30 27 28 27 33 48 48 46 44 45 45 46 51 55 58 58 58 59 60 61 61 62 62 63 63 63 63 61 62 63 62 63 62 64 64 65 66 64 67 68 69 68 70 68 70 71 71 72 71 71 71 70 71 70 70 69 68 68 71 72 71 72 70 70 75 75 74 73 75 75 76 77 78 77 76 74 75 77 76 75 76 76 77 75 75 77 75 75 74 72 73 69 69
34 32 33 30 31 27 27 26 25 38 39 40 41 38 38 38 42 51 54 56 57 57 58 60 62 62 62 62 63 63 62 63 62 62 63 63 63 64 64 65 65 65 66 67 69 69 70 69 70 72 71 72 71 71 72 71 71 73 71 71 69 68 70 71 69 71 71 70 72 74 75 75 75 75 75 76 78 76 76 76 76 76 76 76 75 76 76 75 76 75 77 74 73 73 71 71 72
34 32 31 30 29 27 26 29 26 38 37 34 38 32 33 35 38 45 50 53 55 56 56 59 63 62 62 61 63 63 63 63 62 62 61 62 63 64 65 65 66 65 67 67 68 68 69 70 72 72 72 72 72 73 73 72 72 74 74 74 73 71 71 72 73 73 73 72 71 73 75 76 75 74 74 74 76 76 77 76 75 75 77 77 77 76 76 75 76 75 74 74 72 70 68 70 71
33 32 31 30 29 28 26 25 29 32 31 30 32 30 30 32 32 36 46 52 52 54 56 58 63 63 62 62 62 63 63 64 63 62 62 62 63 63 65 66 65 65 65 66 66 67 66 69 72 73 73 73 73 73 74 73 74 74 74 75 74 73 72 71 71 70 72 72 72 72 73 75 75 74 74 74 75 77 77 76 76 76 76 76 76 75 75 73 74 75 73 74 74 70 69 70 71
31 33 32 29 31 29 27 27 25 25 25 28 27 33 31 33 30 31 42 48 51 54 57 58 61 63 63 63 62 63 62 64 64 63 62 62 62 63 65 66 65 65 66 66 66 66 68 69 73 74 73 73 72 74 75 74 74 73 72 71 71 70 70 70 69 69 68 70 68 70 72 72 73 73 74 75 75 76 77 77 76 76 76 76 75 74 74 74 74 74 74 74 73 72 73 70 69
28 31 34 34 33 31 30 28 27 26 27 28 27 28 29 34 37 46 50 51 53 55 56 56 60 62 62 63 63 62 61 62 63 63 62 61 63 63 65 66 65 65 66 66 66 67 68 70 73 74 74 73 73 75 75 75 73 72 72 70 70 71 70 69 71 68 68 69 69 70 71 73 74 73 73 75 75 76 77 77 77 76 75 75 75 76 75 72 71 73 74 74 74 75 74 73 70
29 32 34 34 34 32 31 30 28 28 26 23 25 25 28 27 48 51 49 53 54 56 57 58 57 62 61 62 62 63 61 62 64 63 63 63 63 63 64 65 65 64 65 66 66 67 70 72 74 75 74 74 73 75 75 74 73 73 73 72 70 70 68 70 71 71 70 71 70 71 71 71 74 74 74 75 76 77 77 77 78 77 75 75 75 75 74 72 74 75 74 77 76 76 77 74 72
26 32 32 32 32 32 31 30 29 28 26 26 21 22 27 29 50 51 50 52 53 55 56 58 60 61 61 61 61 62 62 63 65 62 62 62 63 63 64 65 65 64 64 65 67 68 71 73 75 75 74 75 74 76 75 74 73 73 73 72 71 72 70 69 71 71 70 72 72 72 72 71 74 75 75 75 76 76 76 76 77 77 76 75 75 74 74 74 74 76 77 75 76 76 75 75 75
32 32 31 30 29 29 29 29 28 29 29 28 26 22 26 28 42 45 49 50 51 53 53 53 55 59 60 61 61 61 63 63 62 62 65 63 63 63 63 64 64 63 64 66 67 68 70 73 75 75 75 75 75 76 76 75 73 74 73 73 72 72 71 71 71 70 71 72 72 73 73 73 71 73 74 76 76 76 76 77 76 76 76 74 74 74 75 75 76 77 77 76 77 77 76 75 74
32 31 27 26 27 28 30 29 30 29 27 29 23 23 23 29 41 44 46 48 51 51 52 53 54 53 55 61 62 61 61 62 62 64 65 63 63 63 63 63 65 64 64 66 66 68 70 72 75 75 76 75 75 76 76 75 73 73 73 73 73 73 73 72 72 72 72 72 72 72 72 73 72 71 71 74 75 75 76 76 74 75 75 76 75 75 76 74 73 74 74 77 77 77 75 75 74
31 27 24 23 26 28 30 28 31 27 25 26 22 20 23 25 43 44 49 51 51 51 52 54 54 55 55 57 60 61 61 61 61 62 62 62 64 63 63 64 64 65 64 65 66 67 70 72 74 75 76 76 75 75 76 74 72 72 73 73 74 74 74 72 73 72 72 72 72 71 72 72 73 72 74 72 73 72 75 75 75 75 76 76 75 75 76 74 74 74 74 76 77 77 78 76 75
30 26 26 22 26 28 23 25 24 23 21 22 19 18 25 27 43 43 44 48 51 53 53 54 55 55 57 55 58 62 62 61 62 63 62 61 62 63 63 64 66 67 66 67 66 66 69 72 74 75 75 76 75 75 75 75 74 73 72 72 73 74 74 74 73 72 72 72 71 71 73 72 73 73 73 73 73 74 75 75 76 75 76 76 77 77 76 76 75 74 76 75 76 77 77 77 75
27 26 25 24 24 21 22 22 24 21 19 18 19 20 24 40 42 44 45 50 52 52 54 55 56 57 58 56 57 59 62 62 63 62 62 62 63 62 64 64 65 65 65 65 66 68 69 71 74 74 75 76 76 75 75 75 74 74 74 73 73 73 74 74 72 71 70 71 71 71 71 70 72 72 71 73 72 73 73 74 75 76 77 77 77 78 77 77 77 75 76 76 74 76 76 77 76
25 25 23 24 27 20 22 22 20 18 19 19 22 20 26 33 42 42 46 51 53 53 53 56 57 57 58 58 57 59 61 63 62 62 62 62 62 63 63 63 64 65 65 65 66 68 70 71 73 75 75 75 76 75 75 75 74 74 74 73 73 73 72 72 72 71 71 71 69 70 72 70 69 71 70 73 74 74 74 75 75 75 76 77 77 77 75 76 78 77 76 77 76 76 77 75 74
23 24 23 22 24 24 18 20 16 17 17 19 22 19 27 36 45 46 50 51 52 52 53 55 56 56 57 57 58 58 59 61 61 62 62 63 63 64 63 63 64 65 67 65 66 68 69 71 73 74 75 75 75 76 75 75 74 74 75 75 73 73 73 72 72 72 72 71 72 70 71 72 71 71 73 73 74 74 74 74 74 74 75 74 76 76 76 76 77 76 76 76 76 73 75 75 75
21 21 21 21 23 22 25 24 19 21 18 21 22 34 38 39 42 46 48 50 51 52 52 53 55 56 57 57 58 58 59 60 61 62 62 64 63 64 63 64 63 64 65 66 68 68 70 71 72 73 74 74 75 76 74 75 75 74 74 75 73 73 72 72 70 71 69 71 73 72 70 70 71 72 71 72 73 74 74 73 73 71 73 74 75 76 75 76 76 75 74 76 75 73 74 75 74
21 19 20 22 22 22 26 19 25 18 15 20 17 27 36 33 37 45 47 48 49 51 52 53 55 56 56 56 58 59 59 60 61 62 63 63 63 64 63 63 63 63 65 66 68 68 69 70 71 72 73 74 73 74 73 74 74 74 75 75 74 73 71 70 69 70 71 70 71 72 71 69 69 69 69 67 71 73 74 75 73 73 72 73 73 73 75 75 76 74 74 75 74 75 74 75 75
16 16 21 18 21 22 24 26 17 16 17 25 20 22 34 31 40 43 46 47 48 51 53 53 53 55 56 57 58 59 60 60 60 60 61 62 63 63 65 63 62 63 65 65 66 66 67 69 69 69 71 71 71 71 72 73 74 72 72 73 73 73 71 71 70 71 71 70 69 70 70 69 69 71 72 72 72 72 73 74 75 73 73 74 74 73 74 75 75 74 73 72 73 75 75 74 75
17 18 20 20 24 21 21 22 25 21 16 24 25 29 33 40 39 41 44 48 49 50 51 52 53 54 55 56 57 58 59 60 61 60 60 60 61 62 62 63 62 62 63 63 63 65 65 67 68 68 68 70 71 71 72 72 72 72 71 73 74 74 74 72 71 71 70 70 70 68 69 67 68 68 70 72 72 70 71 71 71 70 69 70 72 71 71 73 74 74 72 70 70 74 74 74 73
16 17 18 19 21 21 23 18 19 18 18 24 28 23 38 41 41 42 46 48 49 50 51 52 52 54 54 57 58 59 59 59 61 62 60 59 61 62 63 64 64 62 62 63 62 64 64 65 66 66 67 67 68 68 70 72 72 72 73 73 72 73 72 71 70 70 71 71 70 70 67 68 69 69 69 70 71 71 71 71 69 69 67 70 73 72 72 73 74 75 74 74 73 73 75 74 74
16 15 17 16 19 20 22 24 21 21 23 22 25 25 39 40 42 44 45 48 49 50 51 52 52 53 56 56 58 60 60 60 60 62 62 64 63 62 64 62 63 63 62 63 62 62 64 64 63 65 64 65 66 67 69 71 72 72 72 72 72 72 72 72 70 69 71 70 70 70 70 69 67 69 70 68 71 70 70 70 70 70 71 70 72 75 71 71 73 74 74 70 72 75 75 75 74